Simultaneous Nadir Overpasses (SNOs) Predictions

Prediction of SNOs between GOES-16 and NOAA-19 Satellite Orbit:

Table of predicted SNOs for the next 14.0 days since TLE Epoch: 8/17/2024
Index Date Time (GOES-16) GOES-16 Lat,Lon NOAA-19 Lat,Lon Distance(km) Time Diff (sec)
1 08/19/2024 02:33:49 0.03, -75.21 -0.61, -78.08 326.87 80
2 08/20/2024 02:21:27 0.03, -75.21 0.04, -75.07 16.54 80
3 08/21/2024 02:11:47 0.03, -75.22 0.75, -72.07 359.71 80
4 08/23/2024 14:28:17 -0.04, -75.25 0.26, -76.64 157.46 80
5 08/24/2024 14:18:35 -0.03, -75.27 -0.41, -73.63 186.66 80
6 08/27/2024 02:38:03 0.03, -75.29 -0.63, -78.27 339.21 80
7 08/28/2024 02:25:42 0.03, -75.31 0.06, -75.27 5.61 80
8 08/29/2024 02:10:40 0.03, -75.32 0.75, -72.26 349.82 80
